Info: MAINTENANCE SELESAI BRI BCA BNI CIMBNIAGA MANDIRI PERMATA ONLINE..POKER88 Memberikan Banyak Bonus & Hadiah serta menghadirkan mini games terbaru BIG or SMALL - Akses selalu melalui website resmi kami http://pk88asia.xyz
REGISTER JACKPOT DEPOSIT REFERRAL DOWNLOAD PROMOSI CONTACT VIP
JACKPOT



   

Jackpot Winner Ceme

Jackpot hanya dapat di beli di awal sebelum periode tersebut berjalan dan jika berhasil maka anda dapat melihat di sisi kiri bawah atau kiri atas akan terdapat notifikasi bahwa jackpot anda berhasil di beli.

Jika anda membeli jackpot di tengah permainan maka pembelian jackpot akan berlaku untuk periode selanjutnya.

Jackpot dilihat dari gabungan kartu pemain dengan kartu bandar. Bandar harus membeli jackpot sebanyak jumlah player yang sedang duduk. Sebagai contoh bila terdapat 3 pemain duduk bermain, dan bandar memutuskan untuk membeli jackpot Rp 1.000, maka pada periode tersebut bandar akan membeli jackpot sebanyak 3xRp1.000 = Rp3.000.

Jackpot bukanlah suatu keharusan untuk dibeli, namun kami memberikan suatu fitur tambahan untuk member tercinta dari www.chip88.asia.

Terdapat tiga pilihan harga jackpot yang bisa anda beli yaitu :100,500 dan 1000 rupiah.

Hadiah dari Multi jackpot system www.chip88.asia

  1. Murni Kecil x 50 harga jackpot yang anda beli.
      (contoH:anda membeli 1000 maka:1000 X 50 = 50.000)
  2. Murni Besar x 50 harga jackpot yang anda beli
      (contoH:anda membeli 1000 maka:1000 X 50 = 50.000)
  3. BALAK x 200 harga jackpot yang anda beli
      (contoH:anda membeli 1000 maka:1000 X 200 = 200.000)
  4. ENAM DEWA x 6666 harga jackpot yang anda beli
      (contoH:anda membeli 1000 maka:1000 X 6666 = 6.666.000)

Demikian adalah penjelasan dari Multi Jackpot www.chip88.asia terima kasih dan selamat bermain salam hoki dari kami


Jackpot Winner

TOP ENAM DEWA
No. Tanggal Nama Price Win
1 17/01 18:41 ROSOAJA murni enam 666,600
2 17/01 18:27 GIMEN murni enam 3,333,000
3 17/01 18:19 FERGUSO205 murni enam 6,666,000
4 17/01 18:18 HAJAHOMB murni enam 6,666,000
5 17/01 17:54 RIZANFZY murni enam 3,333,000
TOP BALAK
No. Tanggal Nama Price Win
1 17/01 18:49 POK33R1001 balak 200,000
2 17/01 18:48 KATIMO28 balak 100,000
3 17/01 18:48 PSY78 balak 200,000
4 17/01 18:48 ORNGKYA89 balak 200,000
5 17/01 18:48 NIA13 balak 100,000
LATEST JACKPOT
No. Tanggal Nama Price Win
1 17/01 18:49 POK33R1001 balak 200,000
2 17/01 18:49 TRIGEL murni kecil 50,000
3 17/01 18:49 BARCARIF murni kecil 50,000
4 17/01 18:48 KSB murni besar 25,000
5 17/01 18:48 KATIMO28 balak 100,000
6 17/01 18:48 PSY78 balak 200,000
7 17/01 18:48 SUPRI188 murni besar 50,000
8 17/01 18:48 MOON2R murni besar 25,000
9 17/01 18:48 ABCD1988 murni kecil 50,000
10 17/01 18:48 ORAOPO murni kecil 50,000
11 17/01 18:48 ABCD1988 murni kecil 50,000
12 17/01 18:48 MENANG800X murni kecil 50,000
13 17/01 18:48 KERAK778 murni kecil 50,000
14 17/01 18:48 POK33R1001 murni kecil 50,000
15 17/01 18:48 MYWORLD69 murni kecil 25,000
16 17/01 18:48 RUJAK_86 murni besar 50,000
17 17/01 18:48 ARWAN murni besar 25,000
18 17/01 18:48 LAUK09 murni besar 5,000
19 17/01 18:48 OMJACK07 murni besar 5,000
20 17/01 18:48 JOANNE murni besar 50,000
21 17/01 18:48 OMJACK07 murni besar 5,000
22 17/01 18:48 BEDORMERCU murni besar 50,000
23 17/01 18:48 ORNGKYA89 balak 200,000
24 17/01 18:48 NIA13 balak 100,000
25 17/01 18:48 MARTEL_89 murni kecil 25,000
26 17/01 18:48 BUNGLON99 murni kecil 50,000
27 17/01 18:48 HC29Z46GIR murni kecil 5,000
28 17/01 18:48 PSY78 murni kecil 50,000
29 17/01 18:48 TAUHUMBA balak 20,000
30 17/01 18:48 TAUPANG murni besar 25,000
31 17/01 18:48 DUBBON murni besar 50,000
32 17/01 18:48 RUSDI73 murni kecil 50,000
33 17/01 18:47 SCOOPY0919 murni besar 25,000
34 17/01 18:47 AMCY705 murni kecil 25,000
35 17/01 18:47 SEBATIK murni besar 50,000
36 17/01 18:47 HENDRAJT87 murni besar 50,000
37 17/01 18:47 SEBATIK balak 200,000
38 17/01 18:47 SAPRANOS balak 200,000
39 17/01 18:47 TEMPEBOZOK murni kecil 50,000
40 17/01 18:47 BUCHE33 murni kecil 5,000
41 17/01 18:47 OPBIJAL303 murni besar 50,000
42 17/01 18:47 COSHCH murni besar 50,000
43 17/01 18:47 ZULKIFLI86 murni kecil 50,000
44 17/01 18:47 NAROTO123 murni kecil 50,000
45 17/01 18:47 ASEP182 balak 20,000
46 17/01 18:47 BKR92 balak 20,000
47 17/01 18:47 88TOPO balak 200,000
48 17/01 18:47 9GNHISN57C balak 200,000
49 17/01 18:47 TUSUKSAT3 murni besar 5,000
50 17/01 18:47 COZ14 balak 200,000
Dewa.FM